Year,Month,Day,Hour,Minute,Value (Times are PST for insolation in W/m^2)
2017,11,01,00,00,0.00
2017,11,01,00,01,0.00
2017,11,01,00,02,0.00
2017,11,01,00,03,0.00
2017,11,01,00,04,0.00
2017,11,01,00,05,0.00
2017,11,01,00,06,0.00
2017,11,01,00,07,0.00
2017,11,01,00,08,0.00
2017,11,01,00,09,0.00
2017,11,01,00,10,0.00
2017,11,01,00,11,0.00
2017,11,01,00,12,0.00
2017,11,01,00,13,0.00
2017,11,01,00,14,0.00
2017,11,01,00,15,0.00
2017,11,01,00,16,0.00
2017,11,01,00,17,0.00
2017,11,01,00,18,0.00
2017,11,01,00,19,0.00
2017,11,01,00,20,0.00
2017,11,01,00,21,0.00
2017,11,01,00,22,0.00
2017,11,01,00,23,0.00
2017,11,01,00,24,0.00
2017,11,01,00,25,0.00
2017,11,01,00,26,0.00
2017,11,01,00,27,0.00
2017,11,01,00,28,0.00
2017,11,01,00,29,0.00
2017,11,01,00,30,0.00
2017,11,01,00,31,0.00
2017,11,01,00,32,0.00
2017,11,01,00,33,0.00
2017,11,01,00,34,0.00
2017,11,01,00,35,0.00
2017,11,01,00,36,0.00
2017,11,01,00,37,0.00
2017,11,01,00,38,0.00
2017,11,01,00,39,0.00
2017,11,01,00,40,0.00
2017,11,01,00,41,0.00
2017,11,01,00,42,0.00
2017,11,01,00,43,0.00
2017,11,01,00,44,0.00
2017,11,01,00,45,0.00
2017,11,01,00,46,0.00
2017,11,01,00,47,0.00
2017,11,01,00,48,0.00
2017,11,01,00,49,0.00
2017,11,01,00,50,0.00
2017,11,01,00,51,0.00
2017,11,01,00,52,0.00
2017,11,01,00,53,0.00
2017,11,01,00,54,0.00
2017,11,01,00,55,0.00
2017,11,01,00,56,0.00
2017,11,01,00,57,0.00
2017,11,01,00,58,0.00
2017,11,01,00,59,0.00
2017,11,01,01,00,0.00
2017,11,01,01,01,0.00
2017,11,01,01,02,0.00
2017,11,01,01,03,0.00
2017,11,01,01,04,0.00
2017,11,01,01,05,0.00
2017,11,01,01,06,0.00
2017,11,01,01,07,0.00
2017,11,01,01,08,0.00
2017,11,01,01,09,0.00
2017,11,01,01,10,0.00
2017,11,01,01,11,0.00
2017,11,01,01,12,0.00
2017,11,01,01,13,0.00
2017,11,01,01,14,0.00
2017,11,01,01,15,0.00
2017,11,01,01,16,0.00
2017,11,01,01,17,0.00
2017,11,01,01,18,0.00
2017,11,01,01,19,0.00
2017,11,01,01,20,0.00
2017,11,01,01,21,0.00
2017,11,01,01,22,0.00
2017,11,01,01,23,0.00
2017,11,01,01,24,0.00
2017,11,01,01,25,0.00
2017,11,01,01,26,0.00
2017,11,01,01,27,0.00
2017,11,01,01,28,0.00
2017,11,01,01,29,0.00
2017,11,01,01,30,0.00
2017,11,01,01,31,0.00
2017,11,01,01,32,0.00
2017,11,01,01,33,0.00
2017,11,01,01,34,0.00
2017,11,01,01,35,0.00
2017,11,01,01,36,0.00
2017,11,01,01,37,0.00
2017,11,01,01,38,0.00
2017,11,01,01,39,0.00
2017,11,01,01,40,0.00
2017,11,01,01,41,0.00
2017,11,01,01,42,0.00
2017,11,01,01,43,0.00
2017,11,01,01,44,0.00
2017,11,01,01,45,0.00
2017,11,01,01,46,0.00
2017,11,01,01,47,0.00
2017,11,01,01,48,0.00
2017,11,01,01,49,0.00
2017,11,01,01,50,0.00
2017,11,01,01,51,0.00
2017,11,01,01,52,0.00
2017,11,01,01,53,0.00
2017,11,01,01,54,0.00
2017,11,01,01,55,0.00
2017,11,01,01,56,0.00
2017,11,01,01,57,0.00
2017,11,01,01,58,0.00
2017,11,01,01,59,0.00
2017,11,01,02,00,0.00
2017,11,01,02,01,0.00
2017,11,01,02,02,0.00
2017,11,01,02,03,0.00
2017,11,01,02,04,0.00
2017,11,01,02,05,0.00
2017,11,01,02,06,0.00
2017,11,01,02,07,0.00
2017,11,01,02,08,0.00
2017,11,01,02,09,0.00
2017,11,01,02,10,0.00
2017,11,01,02,11,0.00
2017,11,01,02,12,0.00
2017,11,01,02,13,0.00
2017,11,01,02,14,0.00
2017,11,01,02,15,0.00
2017,11,01,02,16,0.00
2017,11,01,02,17,0.00
2017,11,01,02,18,0.00
2017,11,01,02,19,0.00
2017,11,01,02,20,0.00
2017,11,01,02,21,0.00
2017,11,01,02,22,0.00
2017,11,01,02,23,0.00
2017,11,01,02,24,0.00
2017,11,01,02,25,0.00
2017,11,01,02,26,0.00
2017,11,01,02,27,0.00
2017,11,01,02,28,0.00
2017,11,01,02,29,0.00
2017,11,01,02,30,0.00
2017,11,01,02,31,0.00
2017,11,01,02,32,0.00
2017,11,01,02,33,0.00
2017,11,01,02,34,0.00
2017,11,01,02,35,0.00
2017,11,01,02,36,0.00
2017,11,01,02,37,0.00
2017,11,01,02,38,0.00
2017,11,01,02,39,0.00
2017,11,01,02,40,0.00
2017,11,01,02,41,0.00
2017,11,01,02,42,0.00
2017,11,01,02,43,0.00
2017,11,01,02,44,0.00
2017,11,01,02,45,0.00
2017,11,01,02,46,0.00
2017,11,01,02,47,0.00
2017,11,01,02,48,0.00
2017,11,01,02,49,0.00
2017,11,01,02,50,0.00
2017,11,01,02,51,0.00
2017,11,01,02,52,0.00
2017,11,01,02,53,0.00
2017,11,01,02,54,0.00
2017,11,01,02,55,0.00
2017,11,01,02,56,0.00
2017,11,01,02,57,0.00
2017,11,01,02,58,0.00
2017,11,01,02,59,0.00
2017,11,01,03,00,0.00
2017,11,01,03,01,0.00
2017,11,01,03,02,0.00
2017,11,01,03,03,0.00
2017,11,01,03,04,0.00
2017,11,01,03,05,0.00
2017,11,01,03,06,0.00
2017,11,01,03,07,0.00
2017,11,01,03,08,0.00
2017,11,01,03,09,0.00
2017,11,01,03,10,0.00
2017,11,01,03,11,0.00
2017,11,01,03,12,0.00
2017,11,01,03,13,0.00
2017,11,01,03,14,0.00
2017,11,01,03,15,0.00
2017,11,01,03,16,0.00
2017,11,01,03,17,0.00
2017,11,01,03,18,0.00
2017,11,01,03,19,0.00
2017,11,01,03,20,0.00
2017,11,01,03,21,0.00
2017,11,01,03,22,0.00
2017,11,01,03,23,0.00
2017,11,01,03,24,0.00
2017,11,01,03,25,0.00
2017,11,01,03,26,0.00
2017,11,01,03,27,0.00
2017,11,01,03,28,0.00
2017,11,01,03,29,0.00
2017,11,01,03,30,0.00
2017,11,01,03,31,0.00
2017,11,01,03,32,0.00
2017,11,01,03,33,0.00
2017,11,01,03,34,0.00
2017,11,01,03,35,0.00
2017,11,01,03,36,0.00
2017,11,01,03,37,0.00
2017,11,01,03,38,0.00
2017,11,01,03,39,0.00
2017,11,01,03,40,0.00
2017,11,01,03,41,0.00
2017,11,01,03,42,0.00
2017,11,01,03,43,0.00
2017,11,01,03,44,0.00
2017,11,01,03,45,0.00
2017,11,01,03,46,0.00
2017,11,01,03,47,0.00
2017,11,01,03,48,0.00
2017,11,01,03,49,0.00
2017,11,01,03,50,0.00
2017,11,01,03,51,0.00
2017,11,01,03,52,0.00
2017,11,01,03,53,0.00
2017,11,01,03,54,0.00
2017,11,01,03,55,0.00
2017,11,01,03,56,0.00
2017,11,01,03,57,0.00
2017,11,01,03,58,0.00
2017,11,01,03,59,0.00
2017,11,01,04,00,0.00
2017,11,01,04,01,0.00
2017,11,01,04,02,0.00
2017,11,01,04,03,0.00
2017,11,01,04,04,0.00
2017,11,01,04,05,0.00
2017,11,01,04,06,0.00
2017,11,01,04,07,0.00
2017,11,01,04,08,0.00
2017,11,01,04,09,0.00
2017,11,01,04,10,0.00
2017,11,01,04,11,0.00
2017,11,01,04,12,0.00
2017,11,01,04,13,0.00
2017,11,01,04,14,0.00
2017,11,01,04,15,0.00
2017,11,01,04,16,0.00
2017,11,01,04,17,0.00
2017,11,01,04,18,0.00
2017,11,01,04,19,0.00
2017,11,01,04,20,0.00
2017,11,01,04,21,0.00
2017,11,01,04,22,0.00
2017,11,01,04,23,0.00
2017,11,01,04,24,0.00
2017,11,01,04,25,0.00
2017,11,01,04,26,0.00
2017,11,01,04,27,0.00
2017,11,01,04,28,0.00
2017,11,01,04,29,0.00
2017,11,01,04,30,0.00
2017,11,01,04,31,0.00
2017,11,01,04,32,0.00
2017,11,01,04,33,0.00
2017,11,01,04,34,0.00
2017,11,01,04,35,0.00
2017,11,01,04,36,0.00
2017,11,01,04,37,0.00
2017,11,01,04,38,0.00
2017,11,01,04,39,0.00
2017,11,01,04,40,0.00
2017,11,01,04,41,0.00
2017,11,01,04,42,0.00
2017,11,01,04,43,0.00
2017,11,01,04,44,0.00
2017,11,01,04,45,0.00
2017,11,01,04,46,0.00
2017,11,01,04,47,0.00
2017,11,01,04,48,0.00
2017,11,01,04,49,0.00
2017,11,01,04,50,0.00
2017,11,01,04,51,0.00
2017,11,01,04,52,0.00
2017,11,01,04,53,0.00
2017,11,01,04,54,0.00
2017,11,01,04,55,0.00
2017,11,01,04,56,0.00
2017,11,01,04,57,0.00
2017,11,01,04,58,0.00
2017,11,01,04,59,0.00
2017,11,01,05,00,0.00
2017,11,01,05,01,0.00
2017,11,01,05,02,0.00
2017,11,01,05,03,0.00
2017,11,01,05,04,0.00
2017,11,01,05,05,0.00
2017,11,01,05,06,0.00
2017,11,01,05,07,0.00
2017,11,01,05,08,0.00
2017,11,01,05,09,0.00
2017,11,01,05,10,0.00
2017,11,01,05,11,0.00
2017,11,01,05,12,0.00
2017,11,01,05,13,0.00
2017,11,01,05,14,0.00
2017,11,01,05,15,0.00
2017,11,01,05,16,0.00
2017,11,01,05,17,0.00
2017,11,01,05,18,0.00
2017,11,01,05,19,0.00
2017,11,01,05,20,0.00
2017,11,01,05,21,0.00
2017,11,01,05,22,0.00
2017,11,01,05,23,0.00
2017,11,01,05,24,0.00
2017,11,01,05,25,0.00
2017,11,01,05,26,0.00
2017,11,01,05,27,0.00
2017,11,01,05,28,0.00
2017,11,01,05,29,0.00
2017,11,01,05,30,0.00
2017,11,01,05,31,0.00
2017,11,01,05,32,0.00
2017,11,01,05,33,0.00
2017,11,01,05,34,0.00
2017,11,01,05,35,0.00
2017,11,01,05,36,0.00
2017,11,01,05,37,0.00
2017,11,01,05,38,0.00
2017,11,01,05,39,0.00
2017,11,01,05,40,0.00
2017,11,01,05,41,0.00
2017,11,01,05,42,0.00
2017,11,01,05,43,0.00
2017,11,01,05,44,0.00
2017,11,01,05,45,0.00
2017,11,01,05,46,0.00
2017,11,01,05,47,0.00
2017,11,01,05,48,0.00
2017,11,01,05,49,0.00
2017,11,01,05,50,0.00
2017,11,01,05,51,0.00
2017,11,01,05,52,0.00
2017,11,01,05,53,0.00
2017,11,01,05,54,0.00
2017,11,01,05,55,0.00
2017,11,01,05,56,0.00
2017,11,01,05,57,0.00
2017,11,01,05,58,0.00
2017,11,01,05,59,0.00
2017,11,01,06,00,0.00
2017,11,01,06,01,0.00
2017,11,01,06,02,0.00
2017,11,01,06,03,0.00
2017,11,01,06,04,0.00
2017,11,01,06,05,0.00
2017,11,01,06,06,0.00
2017,11,01,06,07,0.00
2017,11,01,06,08,0.00
2017,11,01,06,09,0.00
2017,11,01,06,10,0.00
2017,11,01,06,11,0.00
2017,11,01,06,12,0.00
2017,11,01,06,13,0.00
2017,11,01,06,14,0.00
2017,11,01,06,15,0.00
2017,11,01,06,16,0.00
2017,11,01,06,17,0.00
2017,11,01,06,18,0.00
2017,11,01,06,19,0.00
2017,11,01,06,20,0.00
2017,11,01,06,21,0.00
2017,11,01,06,22,0.00
2017,11,01,06,23,0.00
2017,11,01,06,24,0.00
2017,11,01,06,25,0.00
2017,11,01,06,26,0.00
2017,11,01,06,27,0.00
2017,11,01,06,28,0.00
2017,11,01,06,29,0.00
2017,11,01,06,30,0.00
2017,11,01,06,31,0.00
2017,11,01,06,32,0.00
2017,11,01,06,33,0.00
2017,11,01,06,34,0.00
2017,11,01,06,35,0.00
2017,11,01,06,36,0.00
2017,11,01,06,37,0.00
2017,11,01,06,38,0.00
2017,11,01,06,39,0.00
2017,11,01,06,40,0.00
2017,11,01,06,41,0.00
2017,11,01,06,42,0.00
2017,11,01,06,43,0.00
2017,11,01,06,44,0.00
2017,11,01,06,45,0.00
2017,11,01,06,46,0.00
2017,11,01,06,47,0.00
2017,11,01,06,48,0.00
2017,11,01,06,49,0.00
2017,11,01,06,50,0.00
2017,11,01,06,51,0.00
2017,11,01,06,52,0.00
2017,11,01,06,53,0.00
2017,11,01,06,54,0.00
2017,11,01,06,55,0.00
2017,11,01,06,56,0.00
2017,11,01,06,57,0.00
2017,11,01,06,58,0.00
2017,11,01,06,59,0.00
2017,11,01,07,00,0.00
2017,11,01,07,01,0.00
2017,11,01,07,02,0.00
2017,11,01,07,03,0.00
2017,11,01,07,04,0.00
2017,11,01,07,05,0.00
2017,11,01,07,06,0.00
2017,11,01,07,07,0.00
2017,11,01,07,08,0.00
2017,11,01,07,09,0.00
2017,11,01,07,10,0.00
2017,11,01,07,11,0.00
2017,11,01,07,12,0.00
2017,11,01,07,13,0.00
2017,11,01,07,14,0.00
2017,11,01,07,15,0.00
2017,11,01,07,16,0.00
2017,11,01,07,17,0.00
2017,11,01,07,18,0.00
2017,11,01,07,19,0.00
2017,11,01,07,20,0.00
2017,11,01,07,21,0.00
2017,11,01,07,22,0.00
2017,11,01,07,23,0.00
2017,11,01,07,24,0.00
2017,11,01,07,25,0.00
2017,11,01,07,26,0.00
2017,11,01,07,27,0.00
2017,11,01,07,28,0.00
2017,11,01,07,29,0.00
2017,11,01,07,30,0.00
2017,11,01,07,31,0.00
2017,11,01,07,32,0.00
2017,11,01,07,33,0.00
2017,11,01,07,34,0.00
2017,11,01,07,35,0.00
2017,11,01,07,36,0.00
2017,11,01,07,37,0.00
2017,11,01,07,38,0.00
2017,11,01,07,39,0.00
2017,11,01,07,40,0.00
2017,11,01,07,41,0.00
2017,11,01,07,42,0.00
2017,11,01,07,43,0.00
2017,11,01,07,44,0.00
2017,11,01,07,45,0.00
2017,11,01,07,46,0.00
2017,11,01,07,47,0.00
2017,11,01,07,48,0.00
2017,11,01,07,49,0.00
2017,11,01,07,50,0.00
2017,11,01,07,51,0.00
2017,11,01,07,52,0.00
2017,11,01,07,53,0.00
2017,11,01,07,54,0.00
2017,11,01,07,55,0.00
2017,11,01,07,56,0.00
2017,11,01,07,57,0.00
2017,11,01,07,58,0.00
2017,11,01,07,59,0.00
2017,11,01,08,00,0.00
2017,11,01,08,01,0.00
2017,11,01,08,02,0.00
2017,11,01,08,03,0.00
2017,11,01,08,04,0.00
2017,11,01,08,05,0.00
2017,11,01,08,06,0.00
2017,11,01,08,07,0.00
2017,11,01,08,08,0.00
2017,11,01,08,09,0.00
2017,11,01,08,10,0.00
2017,11,01,08,11,0.00
2017,11,01,08,12,0.00
2017,11,01,08,13,2.60
2017,11,01,08,14,5.00
2017,11,01,08,15,5.00
2017,11,01,08,16,5.10
2017,11,01,08,17,7.00
2017,11,01,08,18,7.00
2017,11,01,08,19,7.80
2017,11,01,08,20,9.00
2017,11,01,08,21,9.00
2017,11,01,08,22,9.00
2017,11,01,08,23,9.00
2017,11,01,08,24,9.00
2017,11,01,08,25,9.00
2017,11,01,08,26,9.00
2017,11,01,08,27,9.00
2017,11,01,08,28,10.20
2017,11,01,08,29,11.80
2017,11,01,08,30,12.00
2017,11,01,08,31,12.00
2017,11,01,08,32,11.70
2017,11,01,08,33,11.00
2017,11,01,08,34,11.50
2017,11,01,08,35,11.30
2017,11,01,08,36,11.00
2017,11,01,08,37,11.00
2017,11,01,08,38,11.00
2017,11,01,08,39,11.30
2017,11,01,08,40,12.00
2017,11,01,08,41,11.50
2017,11,01,08,42,11.00
2017,11,01,08,43,11.80
2017,11,01,08,44,12.00
2017,11,01,08,45,12.00
2017,11,01,08,46,12.50
2017,11,01,08,47,14.80
2017,11,01,08,48,17.00
2017,11,01,08,49,18.00
2017,11,01,08,50,18.00
2017,11,01,08,51,18.00
2017,11,01,08,52,22.00
2017,11,01,08,53,31.30
2017,11,01,08,54,45.40
2017,11,01,08,55,45.80
2017,11,01,08,56,52.80
2017,11,01,08,57,60.00
2017,11,01,08,58,62.80
2017,11,01,08,59,64.60
2017,11,01,09,00,62.00
2017,11,01,09,01,71.10
2017,11,01,09,02,77.80
2017,11,01,09,03,66.20
2017,11,01,09,04,62.20
2017,11,01,09,05,64.30
2017,11,01,09,06,52.10
2017,11,01,09,07,45.80
2017,11,01,09,08,42.00
2017,11,01,09,09,50.30
2017,11,01,09,10,62.30
2017,11,01,09,11,68.80
2017,11,01,09,12,82.50
2017,11,01,09,13,91.60
2017,11,01,09,14,95.00
2017,11,01,09,15,95.80
2017,11,01,09,16,105.60
2017,11,01,09,17,134.60
2017,11,01,09,18,166.40
2017,11,01,09,19,150.50
2017,11,01,09,20,105.60
2017,11,01,09,21,107.80
2017,11,01,09,22,99.80
2017,11,01,09,23,91.40
2017,11,01,09,24,81.30
2017,11,01,09,25,70.70
2017,11,01,09,26,60.60
2017,11,01,09,27,50.00
2017,11,01,09,28,42.60
2017,11,01,09,29,39.00
2017,11,01,09,30,36.90
2017,11,01,09,31,35.00
2017,11,01,09,32,32.70
2017,11,01,09,33,30.10
2017,11,01,09,34,25.90
2017,11,01,09,35,25.00
2017,11,01,09,36,25.40
2017,11,01,09,37,27.00
2017,11,01,09,38,26.70
2017,11,01,09,39,23.70
2017,11,01,09,40,19.50
2017,11,01,09,41,21.00
2017,11,01,09,42,21.00
2017,11,01,09,43,21.80
2017,11,01,09,44,27.70
2017,11,01,09,45,53.70
2017,11,01,09,46,79.90
2017,11,01,09,47,98.80
2017,11,01,09,48,116.90
2017,11,01,09,49,138.00
2017,11,01,09,50,149.50
2017,11,01,09,51,169.50
2017,11,01,09,52,184.30
2017,11,01,09,53,185.00
2017,11,01,09,54,181.70
2017,11,01,09,55,135.00
2017,11,01,09,56,109.90
2017,11,01,09,57,119.60
2017,11,01,09,58,147.80
2017,11,01,09,59,204.40
2017,11,01,10,00,252.20
2017,11,01,10,01,172.30
2017,11,01,10,02,164.00
2017,11,01,10,03,152.20
2017,11,01,10,04,135.10
2017,11,01,10,05,132.00
2017,11,01,10,06,124.30
2017,11,01,10,07,103.30
2017,11,01,10,08,84.60
2017,11,01,10,09,83.30
2017,11,01,10,10,107.90
2017,11,01,10,11,143.90
2017,11,01,10,12,150.70
2017,11,01,10,13,119.50
2017,11,01,10,14,107.00
2017,11,01,10,15,119.60
2017,11,01,10,16,174.60
2017,11,01,10,17,166.70
2017,11,01,10,18,124.50
2017,11,01,10,19,101.90
2017,11,01,10,20,107.20
2017,11,01,10,21,137.20
2017,11,01,10,22,180.60
2017,11,01,10,23,216.20
2017,11,01,10,24,236.00
2017,11,01,10,25,217.00
2017,11,01,10,26,171.50
2017,11,01,10,27,214.30
2017,11,01,10,28,293.30
2017,11,01,10,29,325.30
2017,11,01,10,30,331.00
2017,11,01,10,31,330.60
2017,11,01,10,32,348.80
2017,11,01,10,33,351.00
2017,11,01,10,34,356.60
2017,11,01,10,35,354.40
2017,11,01,10,36,326.60
2017,11,01,10,37,283.20
2017,11,01,10,38,263.60
2017,11,01,10,39,232.50
2017,11,01,10,40,239.10
2017,11,01,10,41,309.20
2017,11,01,10,42,313.70
2017,11,01,10,43,290.60
2017,11,01,10,44,320.00
2017,11,01,10,45,321.90
2017,11,01,10,46,327.00
2017,11,01,10,47,328.60
2017,11,01,10,48,332.60
2017,11,01,10,49,328.70
2017,11,01,10,50,331.60
2017,11,01,10,51,334.00
2017,11,01,10,52,333.40
2017,11,01,10,53,332.00
2017,11,01,10,54,329.40
2017,11,01,10,55,329.00
2017,11,01,10,56,337.10
2017,11,01,10,57,339.00
2017,11,01,10,58,341.30
2017,11,01,10,59,342.40
2017,11,01,11,00,342.70
2017,11,01,11,01,345.50
2017,11,01,11,02,347.20
2017,11,01,11,03,349.50
2017,11,01,11,04,350.10
2017,11,01,11,05,352.10
2017,11,01,11,06,353.50
2017,11,01,11,07,355.00
2017,11,01,11,08,356.00
2017,11,01,11,09,358.30
2017,11,01,11,10,359.80
2017,11,01,11,11,360.00
2017,11,01,11,12,362.30
2017,11,01,11,13,364.60
2017,11,01,11,14,366.40
2017,11,01,11,15,367.00
2017,11,01,11,16,368.30
2017,11,01,11,17,370.50
2017,11,01,11,18,372.80
2017,11,01,11,19,374.30
2017,11,01,11,20,376.60
2017,11,01,11,21,378.80
2017,11,01,11,22,380.00
2017,11,01,11,23,380.60
2017,11,01,11,24,381.00
2017,11,01,11,25,382.80
2017,11,01,11,26,385.30
2017,11,01,11,27,387.00
2017,11,01,11,28,387.00
2017,11,01,11,29,388.50
2017,11,01,11,30,390.00
2017,11,01,11,31,391.50
2017,11,01,11,32,393.80
2017,11,01,11,33,396.10
2017,11,01,11,34,397.00
2017,11,01,11,35,397.00
2017,11,01,11,36,398.00
2017,11,01,11,37,400.30
2017,11,01,11,38,401.00
2017,11,01,11,39,401.00
2017,11,01,11,40,403.40
2017,11,01,11,41,406.00
2017,11,01,11,42,406.80
2017,11,01,11,43,408.00
2017,11,01,11,44,409.30
2017,11,01,11,45,410.00
2017,11,01,11,46,410.90
2017,11,01,11,47,411.30
2017,11,01,11,48,413.00
2017,11,01,11,49,413.80
2017,11,01,11,50,416.00
2017,11,01,11,51,417.00
2017,11,01,11,52,417.00
2017,11,01,11,53,417.90
2017,11,01,11,54,418.30
2017,11,01,11,55,420.60
2017,11,01,11,56,422.00
2017,11,01,11,57,423.00
2017,11,01,11,58,424.00
2017,11,01,11,59,424.80
2017,11,01,12,00,424.20
2017,11,01,12,01,427.00
2017,11,01,12,02,427.00
2017,11,01,12,03,427.80
2017,11,01,12,04,429.00
2017,11,01,12,05,430.20
2017,11,01,12,06,431.00
2017,11,01,12,07,433.70
2017,11,01,12,08,432.00
2017,11,01,12,09,432.00
2017,11,01,12,10,432.80
2017,11,01,12,11,435.00
2017,11,01,12,12,436.00
2017,11,01,12,13,437.60
2017,11,01,12,14,440.70
2017,11,01,12,15,439.00
2017,11,01,12,16,439.00
2017,11,01,12,17,439.80
2017,11,01,12,18,442.00
2017,11,01,12,19,443.00
2017,11,01,12,20,444.60
2017,11,01,12,21,443.20
2017,11,01,12,22,445.00
2017,11,01,12,23,444.40
2017,11,01,12,24,444.10
2017,11,01,12,25,445.50
2017,11,01,12,26,445.70
2017,11,01,12,27,446.00
2017,11,01,12,28,446.10
2017,11,01,12,29,448.00
2017,11,01,12,30,448.60
2017,11,01,12,31,450.00
2017,11,01,12,32,450.00
2017,11,01,12,33,450.00
2017,11,01,12,34,451.50
2017,11,01,12,35,450.40
2017,11,01,12,36,454.80
2017,11,01,12,37,454.00
2017,11,01,12,38,454.00
2017,11,01,12,39,454.50
2017,11,01,12,40,455.00
2017,11,01,12,41,455.00
2017,11,01,12,42,455.00
2017,11,01,12,43,455.30
2017,11,01,12,44,457.00
2017,11,01,12,45,457.00
2017,11,01,12,46,457.00
2017,11,01,12,47,458.20
2017,11,01,12,48,460.50
2017,11,01,12,49,459.30
2017,11,01,12,50,461.00
2017,11,01,12,51,461.30
2017,11,01,12,52,461.60
2017,11,01,12,53,461.00
2017,11,01,12,54,461.60
2017,11,01,12,55,461.20
2017,11,01,12,56,461.00
2017,11,01,12,57,461.00
2017,11,01,12,58,461.00
2017,11,01,12,59,461.40
2017,11,01,13,00,462.00
2017,11,01,13,01,462.00
2017,11,01,13,02,463.60
2017,11,01,13,03,462.20
2017,11,01,13,04,464.30
2017,11,01,13,05,465.40
2017,11,01,13,06,464.00
2017,11,01,13,07,465.10
2017,11,01,13,08,466.00
2017,11,01,13,09,466.00
2017,11,01,13,10,466.00
2017,11,01,13,11,466.00
2017,11,01,13,12,466.00
2017,11,01,13,13,466.00
2017,11,01,13,14,466.00
2017,11,01,13,15,466.00
2017,11,01,13,16,466.00
2017,11,01,13,17,466.00
2017,11,01,13,18,466.00
2017,11,01,13,19,466.00
2017,11,01,13,20,466.00
2017,11,01,13,21,466.00
2017,11,01,13,22,464.70
2017,11,01,13,23,464.00
2017,11,01,13,24,464.00
2017,11,01,13,25,464.00
2017,11,01,13,26,463.40
2017,11,01,13,27,462.80
2017,11,01,13,28,462.90
2017,11,01,13,29,463.20
2017,11,01,13,30,462.50
2017,11,01,13,31,462.00
2017,11,01,13,32,462.00
2017,11,01,13,33,462.00
2017,11,01,13,34,462.00
2017,11,01,13,35,462.00
2017,11,01,13,36,461.40
2017,11,01,13,37,461.80
2017,11,01,13,38,461.10
2017,11,01,13,39,461.00
2017,11,01,13,40,460.40
2017,11,01,13,41,459.00
2017,11,01,13,42,459.00
2017,11,01,13,43,459.00
2017,11,01,13,44,459.00
2017,11,01,13,45,459.00
2017,11,01,13,46,459.00
2017,11,01,13,47,459.50
2017,11,01,13,48,461.00
2017,11,01,13,49,461.00
2017,11,01,13,50,458.40
2017,11,01,13,51,457.00
2017,11,01,13,52,458.90
2017,11,01,13,53,461.00
2017,11,01,13,54,461.00
2017,11,01,13,55,461.00
2017,11,01,13,56,460.00
2017,11,01,13,57,457.70
2017,11,01,13,58,458.60
2017,11,01,13,59,457.30
2017,11,01,14,00,457.70
2017,11,01,14,01,453.90
2017,11,01,14,02,428.20
2017,11,01,14,03,351.80
2017,11,01,14,04,316.30
2017,11,01,14,05,308.00
2017,11,01,14,06,119.80
2017,11,01,14,07,125.00
2017,11,01,14,08,174.70
2017,11,01,14,09,271.30
2017,11,01,14,10,232.00
2017,11,01,14,11,168.70
2017,11,01,14,12,123.20
2017,11,01,14,13,103.90
2017,11,01,14,14,100.30
2017,11,01,14,15,102.60
2017,11,01,14,16,104.40
2017,11,01,14,17,109.10
2017,11,01,14,18,113.00
2017,11,01,14,19,106.70
2017,11,01,14,20,108.60
2017,11,01,14,21,112.20
2017,11,01,14,22,107.00
2017,11,01,14,23,142.40
2017,11,01,14,24,171.70
2017,11,01,14,25,201.10
2017,11,01,14,26,229.00
2017,11,01,14,27,229.00
2017,11,01,14,28,227.40
2017,11,01,14,29,220.00
2017,11,01,14,30,269.20
2017,11,01,14,31,296.70
2017,11,01,14,32,222.80
2017,11,01,14,33,192.40
2017,11,01,14,34,157.00
2017,11,01,14,35,165.00
2017,11,01,14,36,221.30
2017,11,01,14,37,368.20
2017,11,01,14,38,389.20
2017,11,01,14,39,451.30
2017,11,01,14,40,471.40
2017,11,01,14,41,472.70
2017,11,01,14,42,467.90
2017,11,01,14,43,461.00
2017,11,01,14,44,448.10
2017,11,01,14,45,443.60
2017,11,01,14,46,459.00
2017,11,01,14,47,450.40
2017,11,01,14,48,432.60
2017,11,01,14,49,427.00
2017,11,01,14,50,434.50
2017,11,01,14,51,454.30
2017,11,01,14,52,447.90
2017,11,01,14,53,447.30
2017,11,01,14,54,448.00
2017,11,01,14,55,446.20
2017,11,01,14,56,395.90
2017,11,01,14,57,318.90
2017,11,01,14,58,327.80
2017,11,01,14,59,346.00
2017,11,01,15,00,262.10
2017,11,01,15,01,243.10
2017,11,01,15,02,250.00
2017,11,01,15,03,451.40
2017,11,01,15,04,447.40
2017,11,01,15,05,446.00
2017,11,01,15,06,446.00
2017,11,01,15,07,446.00
2017,11,01,15,08,200.90
2017,11,01,15,09,134.90
2017,11,01,15,10,150.20
2017,11,01,15,11,220.00
2017,11,01,15,12,227.50
2017,11,01,15,13,188.30
2017,11,01,15,14,167.20
2017,11,01,15,15,181.00
2017,11,01,15,16,355.80
2017,11,01,15,17,373.90
2017,11,01,15,18,373.00
2017,11,01,15,19,371.50
2017,11,01,15,20,367.40
2017,11,01,15,21,366.60
2017,11,01,15,22,367.00
2017,11,01,15,23,363.90
2017,11,01,15,24,355.80
2017,11,01,15,25,367.80
2017,11,01,15,26,361.30
2017,11,01,15,27,354.40
2017,11,01,15,28,348.10
2017,11,01,15,29,342.20
2017,11,01,15,30,336.40
2017,11,01,15,31,331.70
2017,11,01,15,32,329.80
2017,11,01,15,33,328.20
2017,11,01,15,34,326.00
2017,11,01,15,35,323.70
2017,11,01,15,36,320.70
2017,11,01,15,37,318.10
2017,11,01,15,38,315.60
2017,11,01,15,39,312.40
2017,11,01,15,40,309.80
2017,11,01,15,41,308.00
2017,11,01,15,42,305.40
2017,11,01,15,43,304.00
2017,11,01,15,44,302.20
2017,11,01,15,45,301.00
2017,11,01,15,46,300.40
2017,11,01,15,47,298.20
2017,11,01,15,48,297.00
2017,11,01,15,49,297.00
2017,11,01,15,50,298.60
2017,11,01,15,51,297.20
2017,11,01,15,52,294.90
2017,11,01,15,53,293.00
2017,11,01,15,54,288.10
2017,11,01,15,55,283.00
2017,11,01,15,56,281.00
2017,11,01,15,57,277.20
2017,11,01,15,58,272.40
2017,11,01,15,59,272.00
2017,11,01,16,00,271.70
2017,11,01,16,01,270.20
2017,11,01,16,02,270.00
2017,11,01,16,03,269.70
2017,11,01,16,04,269.00
2017,11,01,16,05,269.00
2017,11,01,16,06,269.00
2017,11,01,16,07,268.40
2017,11,01,16,08,267.00
2017,11,01,16,09,265.90
2017,11,01,16,10,266.30
2017,11,01,16,11,267.00
2017,11,01,16,12,268.80
2017,11,01,16,13,264.60
2017,11,01,16,14,261.40
2017,11,01,16,15,258.80
2017,11,01,16,16,256.00
2017,11,01,16,17,253.70
2017,11,01,16,18,254.60
2017,11,01,16,19,253.20
2017,11,01,16,20,252.70
2017,11,01,16,21,250.70
2017,11,01,16,22,250.00
2017,11,01,16,23,248.90
2017,11,01,16,24,246.70
2017,11,01,16,25,244.40
2017,11,01,16,26,241.20
2017,11,01,16,27,238.60
2017,11,01,16,28,234.90
2017,11,01,16,29,231.20
2017,11,01,16,30,230.00
2017,11,01,16,31,229.40
2017,11,01,16,32,227.50
2017,11,01,16,33,225.10
2017,11,01,16,34,222.70
2017,11,01,16,35,220.10
2017,11,01,16,36,217.20
2017,11,01,16,37,213.40
2017,11,01,16,38,208.40
2017,11,01,16,39,203.20
2017,11,01,16,40,199.30
2017,11,01,16,41,197.80
2017,11,01,16,42,188.80
2017,11,01,16,43,183.50
2017,11,01,16,44,180.00
2017,11,01,16,45,177.10
2017,11,01,16,46,174.50
2017,11,01,16,47,172.20
2017,11,01,16,48,171.90
2017,11,01,16,49,171.00
2017,11,01,16,50,170.20
2017,11,01,16,51,169.00
2017,11,01,16,52,166.40
2017,11,01,16,53,162.60
2017,11,01,16,54,158.30
2017,11,01,16,55,155.00
2017,11,01,16,56,152.00
2017,11,01,16,57,142.80
2017,11,01,16,58,137.90
2017,11,01,16,59,131.80
2017,11,01,17,00,126.20
2017,11,01,17,01,120.50
2017,11,01,17,02,115.60
2017,11,01,17,03,111.90
2017,11,01,17,04,107.40
2017,11,01,17,05,104.50
2017,11,01,17,06,104.00
2017,11,01,17,07,102.40
2017,11,01,17,08,100.20
2017,11,01,17,09,97.90
2017,11,01,17,10,96.50
2017,11,01,17,11,93.50
2017,11,01,17,12,89.40
2017,11,01,17,13,85.40
2017,11,01,17,14,83.20
2017,11,01,17,15,79.30
2017,11,01,17,16,74.10
2017,11,01,17,17,60.00
2017,11,01,17,18,48.30
2017,11,01,17,19,41.90
2017,11,01,17,20,36.80
2017,11,01,17,21,32.70
2017,11,01,17,22,30.10